Location: Betzi
(47.2343°N, 9.5260°E)
Time: 22:54:42
(UTC+00:00)

Cosmos 1943 Rocket - Pass Details

Date: 27 May 2022
Orbit: 810 x 845 km, 71.0° (Epoch: 29 June)

Event Time Altitude Azimuth Distance (km) Brightness Sun altitude
Rises 01:06:11 0° 331° (NNW) 3,413 5.9 -17.4°
Reaches altitude 10° 01:08:38 10° 330° (NNW) 2,476 5.1 -17.2°
Maximum altitude 01:14:18 74° 246° (WSW) 883 2.1 -16.7°
Enters shadow 01:19:12 14° 164° (SSE) 2,182 3.9 -16.3°
